Weather History for Montpelier, VT

Change the Weather History Date:

Wednesday, December 3, 2014

  Actual Average Record
Temperature  
Mean Temperature 33 °F 28 °F  
Max Temperature 41 °F 36 °F 59 °F (2009)
Min Temperature 25 °F 20 °F -8 °F (1976)
Degree Days  
Heating Degree Days 32 37  
Month to date heating degree days 104 109  
Since 1 July heating degree days 1922 1955  
Cooling Degree Days 0 0  
Month to date cooling degree days 0 0  
Year to date cooling degree days 188 264  
Moisture  
Dew Point 28 °F    
Average Humidity 78    
Maximum Humidity 100    
Minimum Humidity 56    
Precipitation  
Precipitation 0.12 in 0.10 in 0.56 in (1986)
Month to date precipitation 0.27 0.30  
Year to date precipitation 33.06 34.83  
Sea Level Pressure  
Sea Level Pressure 30.11 in    
Wind  
Wind Speed 8 mph (SW)    
Max Wind Speed 25 mph    
Max Gust Speed 37 mph    
Visibility 6 miles    
Events Rain , Snow    
T = Trace of Precipitation, MM = Missing Value Source: NWS Daily Summary

Daily Weather History Graph

Daily Weather History Graph

Search for Another Location

Airport:

Trip Planner

Search our weather history database for the weather conditions in past years. The results will help you decide how hot, cold, wet, or windy it might be!

Date:

Astronomy

Dec. 03, 2014 Rise Set
Actual Time 7:07 AM EST 4:12 PM EST
Civil Twilight 6:35 AM EST 4:44 PM EST
Nautical Twilight 5:58 AM EST 5:21 PM EST
Astronomical Twilight 5:23 AM EST 5:56 PM EST
Moon 2:36 PM EST (12/3) 3:45 AM EST (12/3)
Length of Visible Light 10h 09m
Length of Day
9h 04m
Waxing Gibbous, 91% of the Moon is Illuminated
Dec 3
Waxing Gibbous
Dec 6
Full
Dec 14
Last Quarter
Dec 21
New
Dec 28
First Quarter

Hourly Weather History & Observations

Time (EST) Temp. Windchill Dew Point Humidity Pressure Visibility Wind Dir Wind Speed Gust Speed Precip Events Conditions
12:01 AM 25.0 °F 17.1 °F 21.9 °F 88% 30.37 in 1.2 mi South 6.9 mph - 0.00 in Snow Light Snow
12:06 AM 25.0 °F 16.3 °F 21.9 °F 88% 30.37 in 2.0 mi South 8.1 mph - 0.00 in Snow Light Snow
12:12 AM 25.0 °F 15.5 °F 21.0 °F 85% 30.36 in 4.0 mi South 9.2 mph - 0.00 in   Overcast
12:51 AM 25.0 °F 16.3 °F 21.9 °F 88% 30.39 in 5.0 mi South 8.1 mph - 0.01 in Snow Light Snow
1:15 AM 26.1 °F 21.9 °F 21.9 °F 84% 30.31 in 2.5 mi Variable 3.5 mph - 0.00 in Snow Light Snow
1:21 AM 26.1 °F 20.5 °F 23.0 °F 88% 30.31 in 1.2 mi Variable 4.6 mph - 0.00 in Snow Light Snow
1:24 AM 26.1 °F 21.9 °F 23.0 °F 88% 30.31 in 0.8 mi Variable 3.5 mph - 0.00 in Snow Light Snow
1:40 AM 26.1 °F 19.4 °F 23.0 °F 88% 30.30 in 1.0 mi Variable 5.8 mph - 0.01 in Snow Light Snow
1:51 AM 26.1 °F 18.4 °F 23.0 °F 88% 30.35 in 1.2 mi Variable 6.9 mph - 0.02 in Snow Light Snow
1:53 AM 26.1 °F 18.4 °F 23.0 °F 88% 30.29 in 1.5 mi SSW 6.9 mph - 0.00 in Snow Light Snow
2:02 AM 26.1 °F 18.4 °F 23.0 °F 88% 30.29 in 2.5 mi SSW 6.9 mph - 0.00 in Snow Light Snow
2:13 AM 26.1 °F 19.4 °F 23.0 °F 88% 30.28 in 1.8 mi South 5.8 mph - 0.01 in   Overcast
2:22 AM 26.1 °F 18.4 °F 23.0 °F 88% 30.28 in 2.5 mi Variable 6.9 mph - 0.01 in Snow Light Snow
2:51 AM 27.0 °F 18.7 °F 24.1 °F 89% 30.32 in 1.8 mi SSW 8.1 mph - 0.03 in Snow Light Snow
2:59 AM 27.0 °F 20.5 °F 24.1 °F 89% 30.25 in 2.5 mi SSW 5.8 mph - 0.00 in Snow Light Snow
3:13 AM 27.0 °F 18.7 °F 25.0 °F 92% 30.23 in 1.8 mi South 8.1 mph - 0.00 in Snow Light Snow
3:30 AM 27.0 °F 21.6 °F 25.0 °F 92% 30.22 in 2.0 mi SW 4.6 mph - 0.00 in Snow Light Snow
3:46 AM 28.4 °F 21.2 °F 24.8 °F 86% 30.21 in 4.0 mi SSW 6.9 mph - 0.00 in   Overcast
3:51 AM 28.0 °F 22.8 °F 25.0 °F 88% 30.26 in 6.0 mi Variable 4.6 mph - 0.00 in   Overcast
3:58 AM 28.9 °F 22.8 °F 26.1 °F 89% 30.20 in 7.0 mi SSW 5.8 mph - N/A   Overcast
4:13 AM 28.9 °F 21.1 °F 27.0 °F 92% 30.18 in 3.0 mi South 8.1 mph - 0.01 in Rain Light Freezing Rain
4:42 AM 30.0 °F 22.4 °F 28.0 °F 92% 30.16 in 7.0 mi South 8.1 mph - 0.03 in Rain Light Freezing Rain
4:51 AM 30.9 °F 24.3 °F 28.0 °F 89% 30.21 in 8.0 mi SSW 6.9 mph - 0.03 in Rain Light Freezing Rain
5:04 AM 30.9 °F 23.5 °F 28.0 °F 89% 30.15 in 6.0 mi South 8.1 mph - 0.00 in   Overcast
5:51 AM 30.9 °F 26.2 °F 28.9 °F 92% 30.16 in 8.0 mi Variable 4.6 mph - 0.00 in Rain Light Freezing Rain
6:49 AM 32.0 °F 26.4 °F 30.2 °F 93% 30.09 in 10.0 mi South 5.8 mph - 0.01 in   Overcast
6:51 AM 32.0 °F 26.4 °F 30.0 °F 92% 30.14 in 10.0 mi South 5.8 mph - 0.01 in Rain Light Freezing Rain
6:58 AM 32.0 °F 28.7 °F 30.0 °F 92% 30.08 in 8.0 mi Variable 3.5 mph - 0.00 in   Overcast
7:07 AM 32.0 °F 27.5 °F 30.0 °F 92% 30.07 in 8.0 mi SSW 4.6 mph - 0.00 in Rain Light Freezing Rain
7:18 AM 33.1 °F 27.7 °F 30.0 °F 89% 30.06 in 10.0 mi South 5.8 mph - 0.00 in   Overcast
7:25 AM 33.1 °F 26.9 °F 30.0 °F 89% 30.06 in 10.0 mi South 6.9 mph - 0.00 in   Overcast
7:51 AM 33.1 °F 26.9 °F 30.0 °F 89% 30.10 in 10.0 mi South 6.9 mph - 0.00 in   Overcast
8:51 AM 33.1 °F 25.5 °F 30.9 °F 92% 30.07 in 10.0 mi South 9.2 mph - N/A   Overcast
9:51 AM 34.0 °F 28.0 °F 32.0 °F 92% 30.03 in 10.0 mi South 6.9 mph - N/A   Overcast
10:51 AM 34.0 °F 29.8 °F 33.1 °F 96% 29.99 in 10.0 mi SSW 4.6 mph - N/A   Overcast
11:51 AM 34.0 °F 29.8 °F 34.0 °F 100% 29.95 in 9.0 mi NW 4.6 mph - N/A   Overcast
12:51 PM 35.1 °F 30.1 °F 34.0 °F 96% 29.92 in 10.0 mi ESE 5.8 mph - N/A   Overcast
1:51 PM 37.0 °F 33.3 °F 35.1 °F 93% 29.88 in 10.0 mi SSW 4.6 mph - N/A   Overcast
2:51 PM 39.9 °F 35.1 °F 35.1 °F 83% 29.87 in 10.0 mi SSW 6.9 mph - N/A   Overcast
3:51 PM 39.9 °F 35.1 °F 34.0 °F 79% 29.85 in 10.0 mi SSW 6.9 mph - N/A   Overcast
4:37 PM 39.9 °F 33.9 °F 34.0 °F 79% 29.83 in 10.0 mi SW 9.2 mph 18.4 mph N/A   Overcast
4:51 PM 39.9 °F 33.9 °F 34.0 °F 79% 29.87 in 10.0 mi SSW 9.2 mph - N/A   Overcast
5:17 PM 39.9 °F 30.8 °F 34.0 °F 79% 29.83 in 10.0 mi SW 18.4 mph 25.3 mph N/A   Overcast
5:51 PM 39.0 °F 32.8 °F 32.0 °F 76% 29.87 in 10.0 mi SW 9.2 mph - 0.00 in   Overcast
6:13 PM 39.0 °F 32.8 °F 33.1 °F 79% 29.85 in 10.0 mi WSW 9.2 mph - 0.00 in Rain Light Rain
6:51 PM 37.0 °F 29.8 °F 32.0 °F 82% 29.91 in 6.0 mi West 10.4 mph 21.9 mph 0.00 in Rain Light Rain
7:26 PM 35.6 °F 28.6 °F 33.8 °F 93% 29.91 in 5.0 mi WNW 9.2 mph 20.7 mph N/A Rain Light Rain
7:44 PM 34.0 °F 24.2 °F 30.0 °F 85% 29.92 in 1.8 mi West 15.0 mph 24.2 mph 0.02 in Snow Light Snow
7:51 PM 33.1 °F 23.9 °F 30.0 °F 89% 29.96 in 2.0 mi West 12.7 mph 18.4 mph 0.02 in Snow Light Snow
8:01 PM 33.1 °F 25.5 °F 30.0 °F 89% 29.93 in 5.0 mi West 9.2 mph 17.3 mph 0.00 in Snow Light Snow
8:12 PM 34.0 °F 25.5 °F 28.9 °F 82% 29.94 in 9.0 mi West 11.5 mph 20.7 mph 0.00 in   Mostly Cloudy
8:51 PM 33.1 °F 25.5 °F 28.0 °F 82% 29.99 in 10.0 mi WNW 9.2 mph 19.6 mph 0.00 in   Overcast
9:51 PM 34.0 °F 23.4 °F 21.9 °F 61% 30.03 in 10.0 mi WNW 17.3 mph 36.8 mph 0.00 in   Mostly Cloudy
10:51 PM 33.1 °F 23.4 °F 19.9 °F 59% 30.05 in 10.0 mi West 13.8 mph 26.5 mph N/A   Mostly Cloudy
11:51 PM 32.0 °F 23.0 °F 19.9 °F 61% 30.06 in 10.0 mi West 11.5 mph 21.9 mph N/A   Overcast